Temperature
28 28 28 28 28 28 27 27 27 27 27 28 28 27 26 25 24 22 21 20 20 19 18 18 17 16 16 15 14 14 13 12 12 11 11 10 10 10 10 9 9 9 9 9
27 28 28 27 27 28 27 27 27 27 27 28 27 26 25 24 23 22 22 21 20 19 19 18 17 17 16 15 14 13 13 12 12 11 11 10 10 10 9 9 9 9 9 9
26 28 27 26 28 28 28 28 27 27 28 27 27 26 25 24 24 23 22 21 21 20 19 18 18 17 16 15 14 13 13 12 12 11 11 10 10 10 9 9 9 9 9 9
26 26 25 27 29 28 28 28 28 27 27 27 26 25 24 24 24 23 22 22 21 20 19 18 18 17 16 15 14 13 13 12 12 11 11 10 10 10 9 9 9 9 9 9
26 26 26 28 28 28 27 27 28 28 27 27 25 25 25 24 23 23 22 22 21 20 19 18 18 17 16 15 14 13 13 12 12 11 10 10 10 9 9 9 9 9 9 9
25 25 25 27 28 27 27 26 28 27 27 27 25 26 27 25 24 23 22 21 21 20 19 18 18 17 16 15 14 14 13 12 12 11 10 10 10 10 9 9 9 9 9 9
25 25 26 27 26 26 26 26 27 27 26 26 26 26 26 25 24 23 22 21 20 20 19 18 18 17 16 15 14 13 13 12 11 11 10 10 10 10 9 9 9 9 9 9
25 24 25 26 26 26 25 24 25 25 25 25 25 24 24 23 23 22 22 21 20 20 19 18 18 17 16 15 14 13 13 12 11 11 10 10 10 10 9 9 9 9 9 9
26 26 25 24 24 23 23 23 23 23 24 24 24 23 23 23 22 22 21 21 20 20 19 18 18 17 17 16 14 14 13 12 12 11 11 10 10 9 9 9 9 9 9 9
25 26 25 23 22 21 21 21 21 22 22 23 23 23 22 22 21 21 21 20 20 19 19 18 18 17 17 16 15 14 14 13 12 11 11 10 10 10 10 10 10 10 9 9
24 25 24 22 19 19 19 19 20 20 21 21 21 21 21 21 20 20 20 19 19 19 19 18 17 17 16 16 15 14 14 13 12 11 11 10 10 10 10 9 9 9 9 9
23 21 21 20 18 18 18 18 18 19 19 19 19 19 19 19 19 18 18 18 17 18 18 17 17 17 16 16 15 14 13 12 12 12 11 11 10 10 10 10 9 9 9 9
19 18 18 17 17 17 18 18 17 17 17 17 17 17 18 18 17 17 17 17 17 17 17 17 16 16 16 15 15 14 14 13 12 12 11 11 11 10 10 10 10 9 9 9
16 17 17 16 16 16 17 17 17 17 16 16 16 16 16 16 16 16 16 16 16 16 16 16 16 15 15 15 14 14 13 12 12 12 11 11 11 10 10 10 10 10 10 9
16 16 16 15 15 16 16 16 16 16 15 15 15 15 15 15 15 15 15 15 15 15 15 15 14 14 14 14 14 13 13 12 12 12 11 11 10 10 10 10 10 10 10 9
15 15 15 15 15 15 15 15 15 15 14 14 14 14 14 14 14 14 14 14 14 14 14 13 13 13 13 13 13 13 12 12 12 11 11 11 11 10 10 10 10 10 10 10
15 14 14 14 14 13 13 13 13 13 14 13 13 13 13 13 13 13 13 13 13 12 12 12 12 12 12 12 12 12 12 12 12 11 11 11 11 10 10 10 10 10 10 10
13 12 12 12 12 12 12 13 12 12 12 12 12 12 12 12 12 11 11 11 12 12 12 11 11 11 11 11 11 11 11 11 11 11 11 10 10 10 10 10 9 9 9 9
12 12 12 12 12 12 12 12 12 12 11 11 11 11 11 11 11 11 11 11 11 11 11 10 10 10 10 10 10 10 10 10 11 11 10 10 9 9 9 9 9 9 9 9
11 11 11 11 11 11 11 11 11 11 11 11 10 10 10 10 10 10 10 10 11 10 9 9 9 10 10 10 9 9 10 10 10 10 10 10 10 9 9 9 9 9 9 9
11 11 11 11 11 11 11 11 10 10 10 10 10 10 10 10 10 10 10 10 10 9 9 9 9 9 9 9 9 9 9 9 9 9 9 9 9 9 9 9 8 8 8 8
11 11 11 11 11 11 10 10 10 10 10 10 9 9 9 9 9 9 9 9 9 9 8 8 8 8 8 8 8 8 8 8 8 9 8 8 8 8 8 8 8 8 8 8
11 10 10 10 10 10 10 10 10 10 9 9 9 9 9 9 9 9 9 9 8 8 7 8 7 7 7 7 7 7 7 7 7 8 8 7 7 7 7 7 7 7 7 7
10 10 10 10 10 9 10 10 10 9 9 9 9 9 9 9 9 9 9 8 8 7 7 7 7 7 6 6 6 6 6 6 6 7 6 6 6 6 7 7 6 7 7 7
10 9 9 9 9 10 10 10 9 9 9 10 10 9 9 9 9 9 8 8 7 7 6 6 6 6 6 5 5 5 5 5 5 5 5 5 5 6 6 6 6 6 6 6
9 9 9 9 9 9 9 9 9 9 9 9 9 9 9 9 9 8 8 7 7 6 6 6 5 5 5 5 4 4 4 4 4 4 4 4 4 5 5 5 5 5 6 6
9 9 9 9 9 9 9 9 9 9 9 9 9 8 8 8 8 7 7 7 6 6 5 5 5 4 4 4 3 3 3 3 3 3 3 3 3 4 4 4 5 5 5 5
Wind_Speed
9 7 7 9 10 9 10 11 12 11 10 8 3 5 7 8 9 10 11 12 11 10 9 8 8 7 7 6 6 6 7 8 8 9 9 10 10 11 11 11 11 11 12 12
11 10 9 11 12 12 11 10 10 10 10 3 0 3 6 8 9 11 11 12 11 11 10 9 8 8 7 6 6 6 7 8 8 9 9 10 10 11 11 11 11 11 12 12
13 10 10 13 9 8 7 7 8 9 5 1 2 4 6 8 10 11 11 11 11 11 10 9 8 7 7 6 6 6 7 8 9 9 10 10 11 11 11 11 11 11 11 12
11 9 11 6 1 4 7 7 7 7 5 3 3 3 5 7 8 9 10 10 10 10 10 9 8 8 6 6 6 7 8 8 9 9 10 10 11 11 11 11 11 11 11 12
9 11 10 7 4 5 7 8 5 5 4 3 2 4 8 10 10 10 10 10 10 10 9 9 8 7 7 7 7 7 8 8 9 9 10 11 11 11 11 11 11 11 12 12
8 9 9 3 4 1 4 8 1 2 5 4 5 8 5 5 10 11 11 10 10 10 9 9 9 8 7 7 7 8 8 8 8 9 10 11 11 12 11 10 11 12 12 12
9 9 8 3 3 3 6 5 6 5 6 6 8 10 5 3 7 10 11 11 11 11 10 10 9 9 8 8 8 8 7 8 9 9 10 11 11 11 11 11 11 12 13 12
6 8 4 5 0 3 7 10 10 10 9 9 10 11 9 7 8 9 10 12 12 11 11 10 10 10 9 9 8 7 7 8 9 9 10 10 10 11 11 11 12 12 11 12
5 4 4 5 5 7 9 11 11 11 12 10 11 12 11 10 9 10 11 11 12 12 11 10 10 10 10 9 8 7 8 9 9 10 9 10 11 11 11 10 10 10 10 10
6 6 4 5 7 8 10 10 12 11 11 10 10 10 9 9 9 9 10 10 10 11 11 11 11 11 11 9 8 8 9 9 9 9 10 10 9 10 10 10 10 10 10 10
9 5 4 5 11 12 11 10 10 9 8 8 8 8 7 6 6 7 7 8 9 10 11 11 10 10 10 9 9 9 10 10 10 10 10 9 9 9 10 10 9 10 11 11
4 5 5 6 10 11 10 11 12 11 11 11 9 8 7 6 5 5 5 5 6 8 9 9 9 9 9 9 10 10 10 10 9 8 8 8 9 10 10 13 12 13 15 15
3 3 4 5 8 10 10 11 12 13 13 13 13 12 10 8 7 5 4 3 4 6 7 7 7 8 9 10 11 11 11 10 9 9 9 9 9 10 10 9 14 18 19 18
4 5 7 8 8 10 11 12 12 14 15 14 14 13 12 10 9 8 7 6 5 5 6 7 8 9 9 9 11 11 11 11 10 9 9 9 9 10 10 10 11 10 11 17
9 9 9 9 10 11 12 12 13 14 15 14 14 13 13 12 11 10 9 8 7 7 7 8 9 9 8 9 10 12 11 10 9 9 9 10 10 10 10 11 11 11 10 7
10 10 10 10 11 12 13 14 13 13 13 13 13 13 12 11 10 10 10 9 9 9 9 9 9 10 9 9 11 11 11 13 11 9 10 10 10 10 10 10 10 10 9 9
9 9 9 10 11 11 12 12 11 12 12 13 13 13 12 12 12 12 12 12 11 10 10 10 10 11 10 10 11 11 11 10 12 11 11 10 10 10 9 9 9 10 9 6
9 8 7 7 8 9 10 11 11 12 12 12 12 12 12 12 13 13 14 14 13 12 12 12 13 14 13 12 10 11 10 10 10 10 9 9 9 9 9 9 10 10 9 6
6 6 6 6 7 8 9 10 10 11 11 11 12 12 11 12 12 13 14 14 14 13 14 15 14 15 14 12 9 10 11 11 10 9 9 9 8 10 9 9 9 9 8 8
5 5 6 7 7 8 9 10 11 10 10 11 11 12 12 13 13 14 15 14 12 12 15 16 17 15 13 11 8 10 10 10 10 9 9 9 9 8 8 9 9 8 8 7
5 6 8 9 9 10 10 10 10 11 11 11 12 12 13 14 14 14 14 14 13 13 15 15 14 13 12 11 10 11 10 9 9 8 8 8 8 8 8 7 7 7 7 6
7 8 10 11 11 11 11 11 11 12 12 12 13 14 14 15 15 15 14 12 13 12 14 15 14 13 14 14 12 11 10 8 8 7 7 7 7 7 6 6 7 6 6 6
9 10 11 11 12 12 13 12 13 12 13 14 15 15 15 14 14 14 14 12 13 13 14 14 13 13 14 13 11 9 7 6 6 6 6 6 6 5 5 6 6 6 5 6
10 11 11 12 13 14 14 14 14 13 15 16 15 15 15 14 13 13 13 12 12 12 14 12 10 11 12 10 8 7 5 5 5 5 4 3 3 4 4 5 6 5 5 6
11 12 13 13 14 13 14 14 15 15 15 14 15 16 14 13 13 13 13 15 14 13 14 12 8 8 9 8 6 5 4 4 4 4 3 3 3 3 4 4 5 5 5 5
12 12 12 13 13 13 13 13 13 13 13 14 14 14 14 13 14 14 13 14 16 13 12 10 9 8 7 6 4 4 3 3 2 2 3 3 3 3 3 4 5 4 4 5
13 13 12 12 12 12 12 12 13 13 14 14 15 15 15 15 14 14 15 13 12 11 10 9 8 7 6 5 4 4 4 4 3 4 4 4 4 4 4 5 4 5 5 5
Wind_Direction
272 277 271 276 279 266 257 273 282 292 294 297 280 229 211 198 193 194 192 194 198 202 201 205 210 219 231 245 255 264 270 277 283 286 289 290 292 291 291 291 289 289 288 286
263 259 260 269 274 270 262 266 271 280 285 309 61 197 197 197 198 202 203 204 205 207 207 208 212 220 229 240 251 256 267 278 287 289 289 291 294 293 293 291 289 288 286 285
266 262 261 264 264 264 257 257 271 284 309 35 222 209 211 209 211 215 214 211 210 209 209 210 212 217 227 239 250 259 269 278 285 287 288 293 296 297 295 293 290 288 286 285
264 263 260 276 285 272 274 274 270 274 280 262 257 235 228 222 222 223 221 216 213 211 207 207 209 212 223 236 246 261 272 279 285 287 289 293 295 295 294 292 291 289 288 287
260 259 259 259 224 240 262 277 274 262 263 246 202 233 231 215 220 226 224 218 214 213 209 204 208 211 217 236 250 262 272 278 285 289 291 293 294 296 295 292 290 290 288 288
246 263 268 291 87 138 262 266 233 236 269 259 209 265 281 187 206 219 220 214 208 205 205 200 204 205 219 239 252 264 274 280 285 285 287 290 292 294 293 290 287 289 290 290
248 255 262 35 84 202 253 346 8 317 293 269 248 269 299 214 205 213 215 211 205 205 207 207 200 201 219 240 254 267 275 278 278 280 283 284 287 287 288 287 289 290 290 287
244 253 269 83 8 291 335 336 324 313 301 284 271 271 267 248 227 219 216 211 206 206 211 206 200 202 220 237 251 261 266 269 273 277 283 289 287 285 284 285 284 283 284 287
268 285 26 8 332 333 331 318 316 312 307 295 279 272 264 252 240 231 223 217 211 211 212 206 201 207 224 236 242 249 256 263 270 276 280 282 282 283 283 280 281 288 292 294
270 275 326 355 0 357 345 329 321 316 310 304 290 285 279 265 252 243 234 225 217 215 216 211 206 210 222 231 236 243 252 260 265 270 274 277 279 279 282 286 288 290 292 295
264 289 313 36 15 357 351 352 349 347 345 336 322 314 308 296 284 270 254 238 226 220 221 218 212 215 220 222 226 241 250 256 263 268 275 281 278 277 280 283 291 291 294 297
303 13 342 1 10 8 16 20 20 20 22 21 14 1 354 347 337 315 288 261 242 237 233 226 218 220 221 218 219 232 246 252 260 267 273 277 281 282 247 242 254 246 250 263
311 11 46 48 33 29 36 38 38 37 34 30 26 22 19 15 9 360 344 313 276 261 248 236 228 229 227 220 219 226 242 254 262 268 271 273 277 283 291 269 234 236 240 241
107 113 83 60 48 40 40 41 42 41 36 32 27 23 20 16 13 9 359 341 314 283 262 249 241 240 236 228 224 228 238 245 246 258 264 270 274 279 283 290 295 288 249 229
88 93 91 75 57 45 38 33 32 28 24 21 20 17 13 8 4 360 354 345 330 307 290 280 272 268 259 242 233 233 238 245 244 253 261 265 269 273 277 281 284 289 295 269
103 91 78 64 48 35 28 24 20 14 10 8 7 5 3 359 357 356 353 349 340 328 319 307 296 292 280 260 248 243 241 241 243 250 259 262 264 269 275 280 284 288 291 294
95 74 56 42 32 23 16 10 5 358 356 358 356 354 354 354 354 356 352 349 341 331 327 324 319 317 303 282 263 257 255 243 213 235 252 260 266 271 276 281 284 287 290 301
77 65 47 29 12 2 357 354 351 348 346 345 344 347 350 352 351 349 345 341 337 332 335 336 335 325 309 294 277 267 259 255 246 243 250 255 264 270 273 277 280 284 289 282
62 45 25 11 357 348 343 340 340 339 338 339 338 339 341 342 342 339 338 334 332 332 339 337 334 317 311 306 292 272 263 257 253 249 250 247 249 260 267 273 277 282 288 296
35 14 359 351 346 340 334 333 332 331 333 333 331 331 331 332 332 330 328 322 327 336 333 330 323 316 314 314 310 287 271 260 256 255 252 255 256 260 265 271 277 282 289 295
357 346 339 338 336 332 329 326 324 323 324 324 323 322 323 323 322 322 321 318 326 335 329 316 313 318 322 329 307 286 271 260 256 257 260 259 260 264 269 275 281 285 291 301
334 332 329 327 324 322 322 316 312 311 315 317 317 318 317 316 317 316 314 315 319 335 329 321 321 338 335 319 299 285 275 267 263 261 258 261 263 264 273 282 284 287 295 301
320 320 317 316 315 312 308 305 306 308 308 309 308 308 309 311 309 308 310 321 323 333 323 317 331 331 319 307 299 292 286 279 274 267 260 262 267 272 281 289 290 294 302 308
309 310 309 308 306 301 299 301 303 303 300 298 296 299 302 302 302 305 312 319 321 321 315 321 322 317 308 307 309 310 307 300 293 286 280 276 282 288 293 299 298 302 309 315
303 303 301 301 298 298 302 300 298 296 296 297 299 302 301 301 305 310 312 313 317 312 313 320 319 315 312 320 326 328 328 336 333 322 319 320 315 306 305 302 303 313 320 324
297 294 298 297 296 293 293 295 297 300 302 302 303 305 306 306 305 306 307 311 316 316 313 318 323 324 326 331 335 346 353 348 335 334 348 337 328 324 324 323 326 329 328 333
289 287 284 285 289 294 299 300 299 299 301 302 305 308 308 307 307 309 312 314 316 318 323 327 332 339 345 349 357 10 9 3 4 3 359 354 348 347 347 341 342 342 339 346
Height
1494 1491 1493 1494 1493 1493 1497 1496 1497 1493 1490 1486 1486 1490 1493 1497 1501 1504 1507 1509 1511 1513 1514 1515 1515 1516 1516 1516 1515 1514 1513 1513 1511 1510 1508 1505 1503 1501 1498 1495 1493 1490 1488 1485
1496 1490 1491 1493 1490 1489 1490 1490 1490 1490 1488 1483 1487 1491 1493 1496 1498 1501 1503 1505 1507 1509 1510 1511 1512 1512 1512 1512 1512 1511 1509 1509 1508 1506 1504 1501 1499 1496 1493 1491 1488 1485 1483 1480
1498 1488 1492 1496 1485 1484 1484 1484 1486 1487 1484 1484 1487 1489 1491 1493 1495 1497 1499 1501 1503 1505 1506 1507 1508 1508 1508 1508 1508 1507 1506 1505 1504 1502 1500 1497 1495 1492 1489 1486 1483 1481 1478 1475
1493 1495 1508 1486 1477 1479 1481 1481 1480 1482 1482 1484 1486 1488 1490 1491 1492 1494 1496 1498 1499 1501 1502 1503 1504 1504 1504 1505 1504 1503 1503 1501 1500 1498 1496 1493 1490 1487 1484 1481 1479 1476 1473 1470
1493 1496 1492 1479 1476 1478 1481 1481 1476 1478 1480 1482 1485 1486 1486 1487 1489 1490 1492 1494 1496 1497 1499 1499 1500 1500 1501 1501 1501 1500 1499 1497 1496 1494 1491 1488 1486 1483 1480 1477 1474 1471 1468 1466
1493 1500 1500 1482 1476 1479 1481 1483 1474 1477 1479 1480 1483 1481 1478 1482 1484 1486 1488 1490 1491 1493 1494 1495 1495 1496 1496 1497 1497 1496 1495 1493 1491 1489 1486 1483 1480 1477 1475 1472 1469 1466 1463 1461
1491 1494 1484 1475 1478 1480 1487 1484 1478 1478 1478 1479 1479 1479 1479 1480 1481 1482 1484 1485 1486 1488 1489 1490 1491 1491 1491 1492 1492 1492 1490 1488 1486 1484 1481 1478 1475 1472 1470 1467 1464 1461 1458 1455
1487 1493 1488 1478 1478 1480 1482 1481 1480 1479 1478 1478 1477 1477 1477 1477 1478 1478 1479 1480 1481 1482 1484 1485 1486 1486 1487 1487 1487 1486 1484 1483 1481 1479 1477 1474 1471 1468 1465 1462 1459 1456 1453 1450
1479 1481 1480 1480 1482 1483 1483 1482 1480 1478 1477 1476 1474 1473 1473 1473 1474 1474 1474 1475 1476 1477 1478 1480 1480 1481 1482 1482 1482 1480 1479 1478 1476 1474 1472 1469 1466 1463 1461 1458 1455 1452 1449 1446
1478 1475 1478 1481 1482 1483 1482 1481 1479 1476 1474 1473 1471 1470 1470 1469 1469 1469 1470 1471 1471 1472 1473 1474 1475 1476 1476 1476 1476 1475 1474 1473 1471 1469 1467 1464 1461 1459 1457 1454 1451 1448 1445 1442
1478 1477 1479 1481 1484 1483 1481 1479 1477 1474 1472 1471 1469 1468 1467 1466 1466 1466 1466 1466 1467 1467 1467 1468 1470 1470 1471 1471 1470 1470 1469 1467 1466 1464 1462 1459 1456 1453 1451 1448 1446 1443 1441 1438
1477 1483 1484 1486 1485 1483 1481 1479 1476 1474 1472 1470 1468 1466 1465 1464 1463 1463 1462 1462 1462 1462 1463 1463 1464 1465 1465 1465 1464 1463 1463 1462 1461 1460 1457 1455 1452 1449 1445 1442 1439 1437 1434 1431
1484 1485 1486 1487 1486 1484 1482 1480 1478 1476 1473 1471 1469 1467 1465 1463 1462 1461 1460 1459 1458 1458 1459 1459 1459 1459 1459 1458 1457 1456 1456 1456 1455 1454 1452 1449 1447 1444 1441 1438 1434 1431 1428 1426
1485 1486 1487 1487 1487 1486 1484 1482 1480 1478 1476 1474 1471 1469 1466 1464 1462 1460 1459 1457 1456 1455 1455 1454 1453 1452 1452 1451 1450 1449 1449 1449 1448 1447 1445 1443 1441 1439 1436 1433 1430 1427 1424 1421
1487 1487 1488 1489 1488 1487 1485 1483 1481 1479 1477 1475 1472 1470 1467 1465 1462 1460 1458 1456 1454 1452 1451 1450 1449 1448 1447 1445 1444 1443 1442 1442 1442 1441 1439 1438 1435 1433 1430 1428 1425 1422 1419 1417
1489 1489 1490 1490 1489 1488 1486 1484 1482 1480 1478 1476 1473 1470 1468 1465 1463 1460 1457 1454 1452 1450 1448 1446 1444 1443 1441 1439 1438 1436 1435 1435 1434 1433 1433 1431 1429 1427 1425 1423 1420 1417 1414 1412
1490 1491 1491 1490 1489 1488 1487 1485 1483 1481 1479 1476 1473 1470 1467 1464 1461 1458 1455 1453 1450 1448 1445 1443 1440 1437 1435 1433 1431 1430 1429 1428 1427 1426 1425 1425 1423 1421 1419 1417 1415 1412 1410 1408
1491 1492 1491 1491 1489 1488 1486 1484 1482 1480 1477 1475 1472 1469 1466 1463 1460 1457 1454 1451 1448 1445 1442 1439 1436 1432 1429 1427 1424 1423 1422 1421 1420 1420 1419 1418 1417 1415 1414 1411 1409 1407 1405 1403
1492 1491 1491 1490 1488 1487 1485 1483 1481 1478 1475 1473 1470 1467 1465 1462 1459 1456 1452 1449 1445 1442 1439 1435 1431 1427 1424 1421 1418 1416 1415 1414 1413 1412 1412 1411 1409 1409 1408 1406 1404 1402 1401 1399
1491 1491 1490 1489 1487 1485 1483 1481 1479 1476 1474 1471 1468 1465 1462 1460 1456 1453 1449 1446 1443 1439 1435 1431 1426 1423 1420 1416 1413 1411 1409 1408 1407 1406 1406 1405 1404 1403 1402 1400 1399 1398 1396 1394
1491 1490 1488 1487 1485 1483 1481 1479 1477 1474 1471 1469 1466 1463 1460 1457 1453 1450 1446 1442 1439 1435 1430 1426 1423 1419 1415 1411 1407 1405 1403 1402 1401 1400 1400 1399 1399 1398 1397 1395 1394 1393 1392 1390
1489 1488 1486 1484 1482 1480 1478 1476 1473 1471 1468 1466 1463 1460 1456 1453 1449 1446 1442 1439 1435 1430 1426 1423 1419 1414 1410 1405 1402 1400 1398 1396 1395 1394 1394 1394 1393 1392 1392 1391 1390 1389 1388 1386
1486 1485 1483 1481 1479 1477 1475 1472 1470 1467 1464 1462 1459 1456 1452 1449 1445 1441 1437 1434 1430 1426 1422 1418 1413 1408 1403 1399 1396 1394 1392 1391 1390 1389 1389 1389 1388 1388 1387 1386 1386 1385 1384 1382
1483 1482 1480 1478 1475 1473 1470 1467 1465 1463 1460 1457 1453 1450 1447 1443 1439 1436 1432 1429 1425 1421 1417 1413 1408 1403 1398 1394 1392 1389 1387 1386 1385 1384 1384 1384 1384 1383 1383 1382 1382 1381 1380 1379
1480 1478 1476 1473 1471 1467 1465 1462 1459 1457 1454 1450 1448 1445 1441 1438 1435 1431 1427 1424 1420 1416 1411 1407 1402 1398 1394 1391 1387 1385 1383 1382 1381 1381 1380 1380 1380 1379 1379 1379 1378 1378 1377 1376
1475 1473 1470 1469 1466 1463 1460 1457 1454 1451 1448 1445 1442 1439 1436 1433 1429 1425 1422 1418 1414 1410 1406 1402 1397 1394 1390 1387 1384 1382 1380 1379 1378 1378 1377 1377 1376 1376 1376 1376 1375 1375 1374 1373
1470 1467 1465 1462 1459 1457 1455 1452 1449 1446 1443 1440 1437 1434 1431 1427 1424 1420 1417 1413 1409 1405 1401 1397 1393 1390 1386 1383 1381 1378 1377 1376 1376 1375 1375 1374 1374 1373 1373 1373 1373 1372 1372 1371